Location: Ferintosh
(52.7647°N, 112.9692°W)
Time: 19:15:58
(UTC+00:00)

S-56A Canister/Altair - Pass Details

Date: 23 May 2024
Orbit: 637 x 2489 km, 38.9° (Epoch: 22 June)

Event Time Altitude Azimuth Distance (km) Brightness Sun altitude
Rises 14:26:39 0° 236° (SW) 5,780 11.5 25.1°
Reaches altitude 10° 14:31:16 10° 228° (SW) 4,532 11.1 25.8°
Maximum altitude 14:41:09 32° 172° (S) 2,512 10.5 27.3°
Drops below altitude 10° 14:48:19 10° 113° (ESE) 3,251 12.1 28.3°
Sets 14:51:03 0° 103° (ESE) 3,980 12.4 28.8°
